User: anonymous   Login
Location: Unspecified
(0.0000°N, 0.0000°E)
Time: 00:14:10
(UTC+00:00)
Language:

KAGAYAKI - Orbit

View from above orbital plane
View from above orbital plane
View from above satellite
View from above satellite

Ground track
Ground track

The orbit data is extracted from the following two-line orbital elements,

1 33495U 09002D   24109.57784929  .00001353  00000-0  21748-3 0  9999
2 33495  98.1939 359.6127 0008738  39.3241 320.8599 14.73241350817884
Epoch (UTC): 18 April 2024 13:52:06
Eccentricity: 0.0008738
inclination: 98.1939°
perigee height: 644 km
apogee height: 657 km
right ascension of ascending node: 359.6127°
argument of perigee: 39.3241°
revolutions per day: 14.73241350
mean anomaly at epoch: 320.8599°
orbit number at epoch: 81788

The dashed part of the orbit path shows where the satellite is in the earth's shadow,  

DLR